This demonstration page uses our WeatherBlox Daily Observations layout. Learn more.

Left ArrowRight Arrow

53.62937, 11.41316

Hourly Observations for March 9, 2019

Temp ( °F °C ) Dew Point ( °F °C ) Humidity (%) Winds ( mph kmh ) Pressure ( in mb ) Visibility ( mi km ) Precip ( " mm )
6:50 am 06:50 Mostly Cloudy with Light Rain 43 6 41 5 93 93 SW 15 24 29.47 998 5 8 N/A
7:20 am 07:20 Windy with Rain Showers Likely 45 7 41 5 87 87 WSW 21 33 29.47 998 30 48 N/A
7:50 am 07:50 Partly Cloudy with Showers Nearby 45 7 39 4 81 81 WSW 22 35 29.47 998 30 48 N/A
8:20 am 08:20 Mostly Cloudy with Light Showers 43 6 39 4 87 87 W 17 28 29.50 999 30 48 N/A
8:50 am 08:50 Mostly Cloudy with Showers Nearby 43 6 37 3 81 81 W 15 24 29.53 1000 30 48 N/A
9:20 am 09:20 Mostly Cloudy with Showers Nearby 45 7 37 3 76 76 W 16 26 29.53 1000 30 48 N/A
9:50 am 09:50 Mostly Cloudy with Showers Nearby 46 8 37 3 71 71 W 21 33 29.53 1000 30 48 N/A
10:20 am 10:20 Windy with Rain Showers Likely 45 7 39 4 81 81 WSW 20 31 29.53 1000 30 48 N/A
10:50 am 10:50 Partly Cloudy with Showers Nearby 45 7 37 3 76 76 W 23 37 29.56 1001 30 48 N/A
11:20 am 11:20 Mostly Cloudy with Light Showers 46 8 37 3 71 71 W 16 26 29.56 1001 30 48 N/A
11:50 am 11:50 Partly Cloudy with Showers Nearby 46 8 37 3 71 71 W 18 30 29.56 1001 30 48 N/A
12:20 pm 12:20 Partly Cloudy with Showers Nearby 46 8 37 3 71 71 W 16 26 29.59 1002 30 48 N/A
12:50 pm 12:50 Partly Cloudy with Showers Nearby 46 8 39 4 76 76 W 16 26 29.59 1002 30 48 N/A
1:20 pm 13:20 Partly Cloudy with Showers Nearby 48 9 37 3 66 66 W 22 35 29.59 1002 30 48 N/A
1:50 pm 13:50 Partly Cloudy with Showers Nearby 45 7 37 3 76 76 W 10 17 29.59 1002 30 48 N/A
2:20 pm 14:20 Mostly Cloudy with Showers Nearby 45 7 37 3 76 76 W 15 24 29.59 1002 30 48 N/A
2:50 pm 14:50 Mostly Cloudy with Showers Nearby 46 8 37 3 71 71 W 12 19 29.56 1001 30 48 N/A
3:20 pm 15:20 Mostly Cloudy with Showers Nearby 46 8 36 2 66 66 W 14 22 29.56 1001 30 48 N/A
3:50 pm 15:50 Mostly Cloudy with Light Rain 46 8 36 2 66 66 WSW 12 19 29.53 1000 30 48 N/A
4:20 pm 16:20 Mostly Cloudy 45 7 36 2 71 71 W 9 15 29.50 999 30 48 N/A
4:50 pm 16:50 Mostly Cloudy 46 8 37 3 71 71 WSW 5 7 29.50 999 30 48 N/A
5:20 pm 17:20 Mostly Cloudy 46 8 36 2 66 66 SW 12 19 29.47 998 30 48 N/A
5:50 pm 17:50 Mostly Cloudy with Light Rain 46 8 36 2 66 66 SW 13 20 29.44 997 30 48 N/A
6:20 pm 18:20 Mostly Cloudy with Light Rain 43 6 39 4 87 87 WSW 17 28 29.44 997 30 48 N/A
6:50 pm 18:50 Mostly Cloudy with Rain 43 6 39 4 87 87 W 13 20 29.47 998 30 48 N/A

Powered by AerisWeather